Tomahawk, WI

8:11 AM CDT on June 23, 2017 (GMT -0500)
Tomahawk

Weather History for KTKV - March, 2012

Change the Weather History Date:

Sunday, March 25, 2012

  Actual Average (KRHI) Record (KRHI)
Temperature  
Mean Temperature 45 °F -  
Max Temperature 53 °F 42 °F 66 °F (1925)
Min Temperature 37 °F 20 °F -15 °F (1974)
Degree Days  
Heating Degree Days 20    
Moisture  
Dew Point 34 °F    
Average Humidity 65    
Maximum Humidity 94    
Minimum Humidity 26    
Precipitation  
Precipitation 0.00 in - - ()
Sea Level Pressure  
Sea Level Pressure 30.08 in    
Wind  
Wind Speed 6 mph (NNW)    
Max Wind Speed 13 mph    
Max Gust Speed 20 mph    
Visibility 10 miles    
Events      
Averages and records for this station are not official NWS values.
T = Trace of Precipitation, MM = Missing Value Source: NWS Daily Summary

Daily Weather History Graph

Daily Weather History Graph

Search for Another Location

Airport or City:

Trip Planner

Search our weather history database for the weather conditions in past years. The results will help you decide how hot, cold, wet, or windy it might be!

Date:

Astronomy

Mar. 25, 2012 Rise Set
Actual Time 6:51 AM CDT 7:18 PM CDT
Civil Twilight 6:22 AM CDT 7:48 PM CDT
Nautical Twilight 5:47 AM CDT 8:23 PM CDT
Astronomical Twilight 5:11 AM CDT 9:00 PM CDT
Moon 7:53 AM CDT (3/25) 10:47 PM CDT (3/25)
Length of Visible Light 13h 26m
Length of Day
12h 27m
Waxing Crescent, 9% of the Moon is Illuminated
Mar 25
Waxing Crescent
Mar 30
First Quarter
Apr 6
Full
Apr 13
Last Quarter
Apr 21
New

Hourly Weather History & Observations

Time (CDT) Temp. Windchill Dew Point Humidity Pressure Visibility Wind Dir Wind Speed Gust Speed Precip Events Conditions
12:15 AM 50.0 °F - 48.2 °F 94% 29.97 in 10.0 mi Calm Calm - N/A   Overcast
12:35 AM 50.0 °F - 48.2 °F 94% 29.97 in 10.0 mi Calm Calm - N/A   Mostly Cloudy
12:55 AM 50.0 °F - 48.2 °F 94% 29.97 in 5.0 mi Calm Calm - N/A   Scattered Clouds
1:15 AM 46.4 °F 45.2 °F 44.6 °F 93% 29.98 in 1.0 mi WNW 3.5 mph - N/A   Mostly Cloudy
1:35 AM 50.0 °F - 48.2 °F 94% 29.98 in 10.0 mi NW 3.5 mph - N/A   Scattered Clouds
1:55 AM 50.0 °F - 48.2 °F 94% 29.99 in 10.0 mi NW 3.5 mph - N/A   Clear
2:15 AM 50.0 °F - 48.2 °F 94% 30.00 in 10.0 mi NW 5.8 mph - N/A   Scattered Clouds
2:35 AM 51.8 °F - 48.2 °F 88% 30.00 in 10.0 mi NNW 4.6 mph - N/A   Mostly Cloudy
2:55 AM 51.8 °F - 46.4 °F 82% 30.00 in 10.0 mi NNW 6.9 mph - N/A   Overcast
3:15 AM 50.0 °F - 46.4 °F 87% 30.00 in 10.0 mi NNW 5.8 mph - N/A   Overcast
3:35 AM 50.0 °F - 44.6 °F 82% 30.00 in 10.0 mi NNW 4.6 mph - N/A   Mostly Cloudy
3:55 AM 48.2 °F - 44.6 °F 87% 30.01 in 10.0 mi NW 8.1 mph - N/A   Scattered Clouds
4:15 AM 48.2 °F - 44.6 °F 87% 30.01 in 10.0 mi NW 6.9 mph - N/A   Mostly Cloudy
4:35 AM 46.4 °F 41.9 °F 42.8 °F 87% 30.02 in 10.0 mi NW 9.2 mph - N/A   Overcast
4:55 AM 46.4 °F 41.9 °F 42.8 °F 87% 30.02 in 10.0 mi NNW 9.2 mph - N/A   Overcast
5:15 AM 44.6 °F 40.7 °F 41.0 °F 87% 30.03 in 10.0 mi North 6.9 mph - N/A   Overcast
5:35 AM 42.8 °F 36.6 °F 39.2 °F 87% 30.04 in 10.0 mi NNW 11.5 mph - N/A   Overcast
5:55 AM 41.0 °F 34.7 °F 37.4 °F 87% 30.04 in 10.0 mi NNW 10.4 mph - N/A   Overcast
6:15 AM 41.0 °F 35.2 °F 35.6 °F 81% 30.05 in 10.0 mi NW 9.2 mph - N/A   Overcast
6:35 AM 41.0 °F 36.4 °F 35.6 °F 81% 30.06 in 10.0 mi NW 6.9 mph - N/A   Overcast
6:55 AM 41.0 °F 37.1 °F 35.6 °F 81% 30.06 in 10.0 mi North 5.8 mph - N/A   Overcast
7:15 AM 39.2 °F 35.9 °F 35.6 °F 87% 30.07 in 10.0 mi North 4.6 mph - N/A   Overcast
7:35 AM 37.4 °F 32.8 °F 33.8 °F 87% 30.08 in 10.0 mi North 5.8 mph - N/A   Overcast
7:55 AM 37.4 °F 32.1 °F 33.8 °F 87% 30.09 in 10.0 mi NNW 6.9 mph - N/A   Overcast
8:15 AM 37.4 °F 31.4 °F 33.8 °F 87% 30.09 in 10.0 mi NNW 8.1 mph - N/A   Overcast
8:35 AM 37.4 °F 32.1 °F 33.8 °F 87% 30.10 in 10.0 mi North 6.9 mph - N/A   Overcast
8:55 AM 41.0 °F 36.4 °F 33.8 °F 76% 30.10 in 10.0 mi North 6.9 mph - N/A   Overcast
9:15 AM 41.0 °F 35.2 °F 33.8 °F 76% 30.10 in 10.0 mi NNW 9.2 mph - N/A   Scattered Clouds
9:35 AM 41.0 °F 35.2 °F 33.8 °F 76% 30.11 in 10.0 mi NW 9.2 mph - N/A   Scattered Clouds
9:55 AM 41.0 °F 37.1 °F 33.8 °F 76% 30.11 in 10.0 mi North 5.8 mph - N/A   Scattered Clouds
10:15 AM 42.8 °F 37.5 °F 33.8 °F 70% 30.12 in 10.0 mi NW 9.2 mph - N/A   Clear
10:35 AM 44.6 °F 40.7 °F 33.8 °F 66% 30.12 in 10.0 mi North 6.9 mph - N/A   Clear
10:55 AM 44.6 °F 40.7 °F 33.8 °F 66% 30.13 in 10.0 mi North 6.9 mph - N/A   Clear
11:15 AM 46.4 °F 44.3 °F 33.8 °F 62% 30.13 in 10.0 mi North 4.6 mph - N/A   Clear
11:35 AM 46.4 °F 42.4 °F 32.0 °F 57% 30.12 in 10.0 mi NW 8.1 mph - N/A   Clear
11:55 AM 50.0 °F - 32.0 °F 50% 30.12 in 10.0 mi NNW 9.2 mph - N/A   Clear
12:15 PM 50.0 °F - 32.0 °F 50% 30.12 in 10.0 mi WNW 6.9 mph - N/A   Clear
12:35 PM 50.0 °F - 32.0 °F 50% 30.11 in 10.0 mi North 4.6 mph - N/A   Clear
12:55 PM 50.0 °F - 32.0 °F 50% 30.11 in 10.0 mi NNW 5.8 mph - N/A   Clear
1:15 PM 51.8 °F - 30.2 °F 44% 30.11 in 10.0 mi NNW 8.1 mph - N/A   Clear
1:35 PM 53.6 °F - 30.2 °F 41% 30.11 in 10.0 mi NW 10.4 mph 17.3 mph N/A   Clear
1:55 PM 53.6 °F - 26.6 °F 35% 30.11 in 10.0 mi North 8.1 mph - N/A   Clear
2:15 PM 53.6 °F - 28.4 °F 38% 30.11 in 10.0 mi NNW 8.1 mph - N/A   Clear
2:35 PM 53.6 °F - 26.6 °F 35% 30.11 in 10.0 mi North 10.4 mph - N/A   Clear
2:55 PM 53.6 °F - 26.6 °F 35% 30.11 in 10.0 mi WNW 10.4 mph 16.1 mph N/A   Clear
3:15 PM 53.6 °F - 23.0 °F 30% 30.11 in 10.0 mi NNW 10.4 mph 18.4 mph N/A   Clear
3:35 PM 53.6 °F - 23.0 °F 30% 30.11 in 10.0 mi NNW 9.2 mph 19.6 mph N/A   Clear
3:55 PM 53.6 °F - 23.0 °F 30% 30.11 in 10.0 mi North 9.2 mph - N/A   Clear
4:15 PM 53.6 °F - 23.0 °F 30% 30.12 in 10.0 mi North 9.2 mph - N/A   Clear
4:35 PM 53.6 °F - 21.2 °F 28% 30.13 in 10.0 mi NNW 11.5 mph 18.4 mph N/A   Clear
4:55 PM 51.8 °F - 19.4 °F 28% 30.13 in 10.0 mi NNW 10.4 mph 18.4 mph N/A   Clear
5:15 PM 51.8 °F - 17.6 °F 26% 30.14 in 10.0 mi NNW 10.4 mph - N/A   Clear
5:35 PM 51.8 °F - 19.4 °F 28% 30.14 in 10.0 mi North 8.1 mph 18.4 mph N/A   Clear
5:55 PM 50.0 °F - 15.8 °F 26% 30.15 in 10.0 mi NNW 10.4 mph 19.6 mph N/A   Clear
6:15 PM 46.4 °F 40.7 °F 19.4 °F 34% 30.16 in 10.0 mi North 12.7 mph 19.6 mph N/A   Clear
6:35 PM 44.6 °F 38.8 °F 21.2 °F 39% 30.18 in 10.0 mi North 11.5 mph - N/A   Clear
6:55 PM 42.8 °F 37.0 °F 19.4 °F 39% 30.19 in 10.0 mi NNW 10.4 mph 18.4 mph N/A   Clear
7:15 PM 41.0 °F 37.1 °F 19.4 °F 42% 30.20 in 10.0 mi NNW 5.8 mph 16.1 mph N/A   Clear
7:35 PM 39.2 °F 33.6 °F 19.4 °F 45% 30.21 in 10.0 mi NNW 8.1 mph - N/A   Clear
7:55 PM 37.4 °F 32.1 °F 21.2 °F 52% 30.22 in 10.0 mi NNW 6.9 mph - N/A   Clear
8:15 PM 37.4 °F 30.8 °F 21.2 °F 52% 30.23 in 10.0 mi North 9.2 mph - N/A   Clear
8:35 PM 35.6 °F 29.2 °F 21.2 °F 56% 30.23 in 10.0 mi NNW 8.1 mph - N/A   Clear
8:55 PM 35.6 °F 30.7 °F 21.2 °F 56% 30.24 in 10.0 mi North 5.8 mph - N/A   Clear
9:15 PM 33.8 °F 27.7 °F 23.0 °F 65% 30.24 in 10.0 mi North 6.9 mph - N/A   Clear
9:35 PM 33.8 °F 27.0 °F 23.0 °F 65% 30.25 in 10.0 mi NNE 8.1 mph - N/A   Scattered Clouds
9:55 PM 33.8 °F 27.0 °F 21.2 °F 60% 30.26 in 10.0 mi NNE 8.1 mph 16.1 mph N/A   Scattered Clouds
10:15 PM 32.0 °F 24.8 °F 23.0 °F 69% 30.27 in 10.0 mi NE 8.1 mph - N/A   Clear
10:35 PM 32.0 °F 24.2 °F 21.2 °F 64% 30.27 in 10.0 mi NE 9.2 mph - N/A   Clear
10:55 PM 32.0 °F 25.6 °F 23.0 °F 69% 30.28 in 10.0 mi NNE 6.9 mph - N/A   Clear
11:15 PM 30.2 °F 23.4 °F 23.0 °F 75% 30.28 in 10.0 mi NE 6.9 mph - N/A   Clear
11:35 PM 30.2 °F 20.8 °F 21.2 °F 69% 30.28 in 10.0 mi NE 11.5 mph - N/A   Clear
11:55 PM 30.2 °F 21.9 °F 21.2 °F 69% 30.30 in 10.0 mi NE 9.2 mph 18.4 mph N/A   Clear